Regional Weather Roundup
Issued by NWS State College, PA

Home | Current Version | Previous Version | Text Only | Print | Product List | Glossary Off
Versions: 1 2 3 4 5 6 7 8 9 10 11 12 13 14 15 16 17 18 19 20 21 22 23 24 25 26 27 28 29 30 31 32 33 34 35 36 37 38 39 40 41 42 43 44 45 46 47 48 49 50

000
ASUS41 KCTP 290010
RWRCTP

REGIONAL WEATHER ROUNDUP
NATIONAL WEATHER SERVICE STATE COLLEGE PA
700 PM EST SUN DEC 28 2014

Note: "fair" indicates few or no clouds below 12,000 feet with no
significant weather and/or obstructions to visibility.

* = STATION THAT DOES NOT REPORT PRECIPITATION /E.G. RAIN...SNOW...ETC/
    THUNDER OR FOG.

PAZ002>004-007>009-013>016-020>023-029>032-290100-
WESTERN PENNSYLVANIA

CITY           SKY/WX    TMP DP  RH WIND       PRES   REMARKS
ERIE           CLOUDY    35  28  75 SW5       30.11R
MEADVILLE      CLOUDY    32  28  85 SW3       30.09R
FRANKLIN*      CLOUDY    32  27  80 W3        30.10R
NEW CASTLE       N/A     34  32  92 CALM      30.13R
BEAVER COUNTY  NOT AVBL
BUTLER*        CLOUDY    34  30  86 CALM      30.12R
PITTSBURGH INT CLOUDY    37  30  75 NW8       30.10R
PITTSBURGH     MOCLDY    36  28  73 NW7       30.09R
INDIANA*       CLOUDY    36  34  93 W5        30.11R
LATROBE        CLEAR     36  36 100 SW5       30.10R
WASHINGTON CO* NOT AVBL
$$

PAZ004>006-010>012-017>019-024>028-033>037-041-042-045-046-049>053-290100-
CENTRAL PENNSYLVANIA

CITY           SKY/WX    TMP DP  RH WIND       PRES   REMARKS
BRADFORD       MOCLDY    30  23  75 NW8       30.03R
DUBOIS         CLOUDY    33  28  81 NW5       30.05R
CLEARFIELD     CLOUDY    35  28  75 NW8       30.05R
JOHNSTOWN      MOCLDY    32  29  88 W7        30.02R
ALTOONA        CLOUDY    37  32  82 W7        30.06R
STATE COLLEGE  CLOUDY    37  28  70 W8        30.04R
WILLIAMSPORT   CLOUDY    42  32  67 W6        30.03R
SELINSGROVE    CLOUDY    43  32  65 NW6       30.04R
FT INDIANTOWN  CLOUDY    46  35  67 VRB6      30.02R
CAPITAL CITY   CLOUDY    46  36  68 NW10      30.04R
HARRISBURG     CLOUDY    45  35  68 NW12      30.02R
YORK           CLOUDY    47  38  71 NW9       30.01S
$$

PAZ038>040-043-044-047-048-054-055-060>062-067>071-290100-
EASTERN PENNSYLVANIA

CITY           SKY/WX    TMP DP  RH WIND       PRES   REMARKS
SCRANTON       CLOUDY    40  31  70 NW8       30.01R
MOUNT POCONO   CLOUDY    37  28  70 NW8       29.96R
ALLENTOWN      CLOUDY    46  36  68 NW6       30.00R
QUAKERTOWN*    CLOUDY    46  39  76 CALM      30.00S
READING        CLOUDY    46  38  73 NW7       30.00R
LANCASTER      CLOUDY    46  37  71 NW7       30.01S
COATESVILLE    CLOUDY    48  41  76 NW7       30.00F
POTTSTOWN      CLOUDY    47  40  76 CALM      30.00F
BLUE BELL      CLOUDY    50  43  76 CALM      29.99F
DOYLESTOWN     CLOUDY    47  41  80 W3        29.99R
WILLOW GROVE   NOT AVBL
NORTH PHILA    CLOUDY    52  39  61 NW7       30.02R
PHILADELPHIA   LGT RAIN  53  42  66 NW6       30.01S
$$



USA.gov is the U.S. government's official web portal to all federal, state and local government web resources and services.